This is the latest recevied weather packets stored in our database for station/object KB1QVF. If no packets are shown the sender has not sent any weather packets the latest 10 day(s).
| Time | Temp. | Humidity | Pressure | Rain* | Wind** | Luminosity | Snow |
|---|---|---|---|---|---|---|---|
| 1777923931 | 19.44° C | 32% | 1010.5 hPa | 0 mm | - | 589 W/m² | - |
| 1777923627 | 19.44° C | 32% | 1010.8 hPa | 0 mm | - | 607 W/m² | - |
| 1777923324 | 19.44° C | 32% | 1010.8 hPa | 0 mm | - | 613 W/m² | - |
| 1777923022 | 19.44° C | 32% | 1010.7 hPa | 0 mm | - | 512 W/m² | - |
| 1777922720 | 19.44° C | 33% | 1011 hPa | 0 mm | - | 405 W/m² | - |
| 1777922418 | 19.44° C | 32% | 1010.5 hPa | 0 mm | - | 654 W/m² | - |
| 1777922116 | 18.89° C | 33% | 1010.8 hPa | 0 mm | - | 652 W/m² | - |
| 1777921812 | 19.44° C | 33% | 1010.8 hPa | 0 mm | - | 658 W/m² | - |
| 1777921508 | 19.44° C | 32% | 1010.7 hPa | 0 mm | - | 659 W/m² | - |
| 1777921204 | 19.44° C | 31% | 1010.8 hPa | 0 mm | - | 668 W/m² | - |
| 1777920901 | 19.44° C | 31% | 1011 hPa | 0 mm | - | 671 W/m² | - |
| 1777920597 | 18.89° C | 32% | 1010.8 hPa | 0 mm | - | 686 W/m² | - |
| 1777920293 | 19.44° C | 30% | 1010.9 hPa | 0 mm | - | 694 W/m² | - |
| 1777919989 | 19.44° C | 32% | 1011.1 hPa | 0 mm | - | 707 W/m² | - |
| 1777919686 | 19.44° C | 30% | 1011.1 hPa | 0 mm | - | 712 W/m² | - |
| 1777919384 | 19.44° C | 32% | 1011 hPa | 0 mm | - | 718 W/m² | - |
| 1777919080 | 18.89° C | 31% | 1011.1 hPa | 0 mm | - | 727 W/m² | - |
| 1777918778 | 19.44° C | 31% | 1011.3 hPa | 0 mm | - | 736 W/m² | - |
| 1777918475 | 18.89° C | 33% | 1011.4 hPa | 0 mm | - | 740 W/m² | - |
| 1777918174 | 18.89° C | 31% | 1011.2 hPa | 0 mm | - | 744 W/m² | - |
| 1777917872 | 19.44° C | 31% | 1011 hPa | 0 mm | - | 751 W/m² | - |
| 1777917570 | 18.89° C | 31% | 1011.5 hPa | 0 mm | - | 760 W/m² | - |
| 1777917267 | 18.89° C | 33% | 1011.6 hPa | 0 mm | - | 763 W/m² | - |
| 1777916965 | 18.33° C | 34% | 1011.5 hPa | 0 mm | - | 766 W/m² | - |
| 1777916662 | 18.89° C | 33% | 1011.4 hPa | 0 mm | - | 774 W/m² | - |
* Rain latest hour (hover to see other rain measurements)
** Current wind speed in m/s (hover to see current wind gust speed)